Temperature
18 17 17 17 17 17 17 17 17 17 17 17 17 17 17 17 17 17 17 17 18 18 17 17 17 17 17 17 17 17 17 17 17 17 17 17 17 17 17 17 17 16 16
17 17 17 17 17 17 17 17 17 17 17 17 17 17 17 17 17 17 17 17 17 18 18 17 17 17 17 17 17 17 17 17 17 17 17 17 17 17 17 17 17 16 16
17 17 17 16 16 16 16 16 16 16 16 16 16 16 17 17 16 16 17 17 17 17 18 17 17 17 17 17 17 17 17 17 17 17 17 17 17 17 17 17 17 17 16
17 17 16 16 16 16 16 16 16 16 16 16 16 16 16 16 16 16 16 16 17 17 17 17 17 17 17 17 17 17 17 17 17 17 17 17 17 17 17 17 17 17 16
16 16 16 16 15 15 15 15 16 15 16 16 16 16 16 16 16 16 16 16 16 16 16 17 17 17 17 17 17 17 17 17 17 17 17 17 17 17 17 17 17 17 16
16 16 15 15 15 15 15 15 15 15 15 15 15 16 16 16 16 16 16 16 16 16 16 16 16 17 17 17 17 17 17 17 17 17 17 17 17 17 17 17 17 17 17
15 15 15 15 14 14 14 14 14 14 14 14 15 15 16 16 16 16 16 16 16 16 16 16 16 16 16 17 17 17 17 17 17 17 17 17 17 17 17 17 17 17 17
15 15 14 14 14 14 13 13 13 14 14 14 14 15 16 17 16 16 16 16 16 16 16 16 16 16 16 16 17 17 17 17 17 17 17 17 17 17 17 17 17 17 17
14 14 14 14 13 13 14 13 13 13 14 14 14 14 15 17 16 17 16 16 16 16 16 16 16 16 16 16 16 17 17 17 17 17 17 17 17 17 17 17 17 17 17
14 14 13 13 13 13 13 13 13 13 13 13 14 13 13 14 14 15 16 16 15 15 15 16 16 16 16 16 16 16 17 17 17 17 17 17 17 17 17 17 17 17 17
13 13 13 12 12 12 12 12 12 12 12 13 13 14 14 13 13 14 15 15 15 15 15 15 15 15 15 16 16 16 16 17 17 17 17 17 17 17 17 17 17 17 17
13 12 12 12 12 12 12 11 11 12 12 12 12 13 13 13 14 14 14 14 15 15 15 15 15 15 15 15 16 16 16 17 17 17 17 17 17 17 17 17 17 17 17
13 12 11 11 11 11 11 11 11 11 11 11 11 12 13 13 13 13 13 14 14 14 15 15 15 15 15 15 15 16 16 16 17 17 17 17 17 16 16 17 17 17 17
12 11 11 11 10 10 10 10 11 11 11 11 11 11 12 12 13 13 13 13 13 14 14 15 15 15 15 15 15 15 16 16 16 17 17 17 17 16 16 16 16 16 16
11 10 10 10 10 10 10 10 10 10 10 10 11 11 11 12 12 12 12 12 13 13 14 14 14 14 14 15 15 15 15 16 16 16 16 17 17 16 16 16 16 16 16
10 10 10 9 9 9 9 9 10 10 10 10 10 10 11 11 11 12 12 12 12 12 13 14 14 14 14 14 14 15 15 15 16 16 16 16 16 16 16 16 16 16 16
9 9 9 9 9 9 9 9 9 9 9 9 10 10 10 10 11 11 11 12 12 12 12 13 13 13 13 14 14 14 15 15 15 16 16 16 16 16 16 16 16 16 16
9 9 9 9 9 9 9 9 9 9 9 9 9 9 9 10 10 10 11 11 11 12 12 12 12 13 13 13 14 14 14 15 15 15 16 16 16 16 16 16 16 16 16
9 9 9 9 9 9 9 9 9 9 9 9 9 9 9 9 9 10 10 11 11 11 11 11 12 12 13 13 13 14 14 14 15 15 15 16 16 16 16 16 16 16 16
9 9 9 8 8 8 8 8 8 8 8 8 8 8 9 9 9 9 10 10 10 11 11 11 11 12 12 12 13 13 13 14 14 14 15 15 15 15 16 16 16 16 16
9 8 8 8 8 8 8 8 8 8 8 8 8 8 8 8 8 9 9 10 10 10 11 11 11 12 12 12 12 13 13 13 13 14 14 14 15 15 15 15 15 15 16
8 8 8 8 8 8 8 8 8 8 8 8 8 8 8 8 8 9 9 9 9 9 10 11 11 11 12 12 12 12 12 12 12 13 13 14 14 14 15 15 15 15 15
8 8 8 8 8 8 8 8 8 8 7 7 7 8 8 8 8 8 8 8 9 9 9 9 10 11 11 11 11 11 12 12 12 12 13 13 13 14 14 14 14 15 15
8 8 8 8 8 8 8 8 8 8 7 7 7 7 7 8 8 8 8 8 8 8 9 9 9 10 10 11 11 11 11 11 12 12 12 12 12 13 13 13 14 14 14
8 8 8 8 8 8 8 8 8 7 7 7 7 7 7 7 7 7 7 7 8 8 9 9 9 9 10 10 10 11 11 11 11 11 12 12 12 12 12 13 13 13 14
8 8 8 8 8 8 8 8 7 7 7 7 7 7 7 7 7 7 7 7 7 8 8 9 9 9 9 10 10 10 10 11 11 11 11 11 12 11 11 11 12 12 13
Wind_Speed
4 4 4 5 6 7 6 6 8 8 9 9 11 12 12 13 13 13 10 13 15 17 18 18 19 21 22 22 22 22 22 21 21 20 19 19 18 17 17 16 15 15 15
3 3 3 4 6 6 6 6 8 7 8 8 10 12 12 14 14 15 15 13 17 19 19 20 20 22 23 24 24 24 24 24 23 22 22 21 20 19 19 18 17 16 16
2 2 3 3 4 5 5 6 7 8 8 9 11 11 11 13 14 15 16 15 15 19 21 21 22 22 23 24 25 26 26 26 25 25 24 23 22 21 20 20 19 18 18
1 2 2 3 3 4 5 5 6 7 7 8 9 9 10 11 14 15 16 16 16 15 19 23 23 23 23 25 26 26 27 28 27 27 26 25 24 23 22 22 21 20 20
2 2 2 2 4 4 5 6 5 6 7 8 9 9 10 11 11 13 14 17 17 17 17 18 24 25 25 26 27 27 28 29 29 29 28 27 26 25 24 24 23 22 22
1 3 3 2 5 5 5 5 6 6 7 8 9 10 10 11 12 12 14 15 17 19 20 19 18 22 27 27 27 28 29 29 29 30 29 29 28 27 26 26 25 24 23
1 3 5 3 5 5 6 7 7 7 7 6 8 10 10 12 12 11 12 13 15 17 19 19 18 18 19 27 29 29 30 30 30 30 30 29 29 29 28 27 27 26 25
3 4 4 5 5 5 6 6 6 7 7 6 7 9 9 9 9 10 10 11 13 12 14 17 18 18 18 18 23 30 31 32 31 31 31 31 30 30 30 29 28 27 27
5 5 5 6 6 8 7 7 8 8 8 8 6 6 7 7 7 6 8 9 9 10 11 12 15 18 20 19 19 27 33 33 32 31 31 32 31 31 31 31 29 29 28
6 6 7 7 7 9 8 9 8 8 9 9 7 7 8 8 7 7 6 6 8 9 10 10 12 15 18 19 20 21 28 32 32 32 32 32 33 32 32 32 31 30 29
7 7 7 7 7 9 9 9 9 10 9 10 9 8 8 8 9 9 9 8 7 7 8 9 9 10 15 17 18 21 24 29 31 32 32 32 32 32 32 32 31 30 30
7 8 8 8 9 9 9 9 9 11 10 10 10 10 9 8 8 8 9 9 9 8 7 7 8 9 11 15 18 20 23 27 29 30 31 31 31 31 32 32 31 31 30
8 7 8 8 9 8 9 10 10 11 11 11 11 11 10 9 8 9 9 9 9 8 7 7 7 7 10 12 14 16 20 24 27 28 28 29 30 31 31 31 31 30 30
9 8 9 9 10 10 10 9 10 11 10 10 12 12 10 11 9 9 9 9 9 9 8 7 5 6 7 9 11 14 17 22 24 26 26 27 28 29 30 30 31 30 29
9 9 9 10 10 10 10 10 10 11 10 11 12 12 11 10 10 9 9 8 8 9 8 6 4 4 5 7 9 12 14 18 22 24 25 25 26 27 29 29 29 29 29
9 10 11 11 11 11 11 11 11 11 10 11 10 12 11 11 10 9 9 9 9 9 9 6 5 4 5 5 7 10 12 13 19 22 23 23 24 25 27 27 28 28 27
10 11 11 11 11 11 11 11 12 12 13 13 12 12 13 13 11 10 10 10 9 9 10 8 6 5 5 5 5 7 9 10 13 18 20 21 22 24 25 26 26 26 25
10 11 11 11 12 12 11 12 13 13 13 13 13 13 13 12 13 12 11 11 10 9 10 10 7 6 5 5 5 6 6 8 9 14 18 19 20 21 22 23 23 23 23
11 11 11 12 12 12 12 12 13 13 13 14 14 14 14 14 14 13 13 12 11 10 9 10 9 6 5 4 4 4 4 4 5 9 14 15 16 18 19 20 20 20 20
11 11 11 12 12 12 12 12 12 13 13 14 14 14 14 14 14 14 12 13 12 12 11 10 9 7 6 5 4 4 4 4 4 6 7 10 13 14 15 16 17 18 18
11 11 12 12 12 12 11 11 11 13 13 13 14 14 15 14 12 11 12 12 12 12 11 11 10 8 7 5 5 4 4 4 4 4 6 7 9 9 10 13 14 15 16
11 11 12 12 12 11 6 6 11 14 14 15 15 14 14 14 14 15 15 15 14 14 13 12 11 10 9 7 6 5 5 4 3 4 5 6 7 7 7 9 12 15 15
11 11 12 12 12 12 7 8 10 13 15 15 15 14 13 13 12 14 15 18 18 19 17 14 14 12 10 8 7 8 8 8 5 6 6 4 5 5 5 7 13 13 14
11 11 12 12 12 12 7 8 9 13 15 15 15 15 15 15 14 13 14 15 15 16 16 16 15 14 11 8 8 9 8 7 5 7 6 3 4 4 4 6 11 12 13
11 11 12 12 13 12 8 7 9 12 12 14 14 14 14 14 12 10 14 15 15 14 13 13 12 10 7 5 6 7 7 8 6 6 5 4 4 3 4 4 8 11 12
11 12 12 12 12 13 8 6 8 10 12 12 11 12 12 13 11 9 14 15 16 14 13 12 13 12 12 11 10 10 9 9 6 5 5 6 6 5 4 3 5 8 9
Wind_Direction
260 261 262 267 267 263 256 252 254 254 253 250 250 246 244 244 247 249 241 198 207 219 224 226 224 220 215 212 209 207 206 204 202 199 197 195 194 192 190 189 187 185 184
261 261 254 265 270 273 274 270 265 259 256 254 250 249 248 247 243 244 246 230 213 218 224 226 226 224 220 216 212 211 209 208 206 203 201 200 199 197 196 196 194 192 191
263 271 269 265 280 281 271 266 268 264 259 257 256 254 250 249 248 244 244 244 235 220 221 225 226 225 223 220 216 213 212 211 208 206 204 204 203 202 200 200 199 198 197
286 283 296 293 299 286 282 277 267 269 267 266 266 262 257 252 250 248 244 239 239 238 223 219 222 223 224 221 220 217 215 214 211 209 207 206 206 205 204 203 203 203 202
346 316 318 331 296 293 292 287 287 281 277 274 271 260 256 254 252 251 249 245 239 237 237 219 216 221 223 223 221 219 218 216 214 212 210 208 208 208 207 206 206 206 206
309 313 293 308 301 294 291 291 291 280 281 279 279 274 261 257 253 250 249 247 241 235 234 234 223 220 221 222 220 219 218 217 217 214 213 211 210 210 209 208 208 208 208
309 299 306 309 295 296 299 294 290 282 278 288 284 277 264 251 246 248 245 245 241 236 235 233 231 226 219 217 217 215 216 216 217 216 214 213 212 211 210 210 210 210 210
281 278 296 294 296 297 281 286 285 291 291 289 290 291 282 264 236 243 243 241 243 238 235 233 230 227 229 221 214 212 215 214 216 217 217 215 214 213 211 211 211 211 212
272 284 284 288 299 289 287 289 285 279 287 287 278 282 288 287 304 258 245 246 243 239 238 238 232 229 226 227 219 210 212 212 213 215 217 216 215 213 212 212 212 213 213
279 280 281 282 284 287 289 278 278 282 277 280 274 263 270 286 286 288 268 251 245 244 245 244 237 229 226 225 223 216 209 209 210 213 215 216 215 213 212 212 213 214 214
275 279 282 285 284 281 285 287 288 278 275 275 279 278 275 270 263 271 282 282 269 254 247 245 239 236 231 226 224 221 208 206 208 211 214 215 214 213 213 213 215 216 216
281 280 284 285 282 284 284 278 278 272 270 274 275 275 275 277 281 280 280 281 279 271 259 251 242 235 234 230 227 220 207 204 206 209 212 212 213 213 213 214 215 217 218
292 295 297 292 288 285 282 280 274 276 272 268 264 267 270 272 278 281 282 284 282 278 266 254 242 236 233 230 228 220 210 204 204 207 209 210 212 212 213 213 215 216 217
302 309 295 288 286 284 282 280 278 271 267 267 266 267 269 267 269 271 277 286 285 276 264 257 244 235 238 233 229 217 215 203 203 205 208 210 210 210 211 211 212 213 215
297 297 293 289 287 284 283 281 275 276 273 269 268 262 258 264 263 265 268 270 278 282 277 268 253 241 246 241 227 221 221 206 202 204 206 208 208 208 208 208 209 210 212
294 293 289 287 285 283 280 277 276 271 270 268 268 272 269 266 264 259 260 263 263 270 276 277 278 279 275 261 232 226 225 208 202 202 203 204 204 205 205 205 206 207 209
293 289 287 286 284 282 280 277 275 278 272 270 268 264 261 265 266 264 257 256 259 260 268 272 273 279 268 266 252 233 220 211 206 198 198 199 200 202 202 202 202 204 207
291 290 289 287 284 283 283 279 277 277 274 271 268 267 264 261 257 259 260 258 258 259 264 271 272 271 263 252 250 238 227 214 204 191 190 192 194 195 196 196 197 200 203
291 291 289 287 286 286 283 280 278 276 273 271 269 267 264 261 260 258 256 255 253 251 251 260 264 264 267 254 233 228 218 203 192 175 176 180 184 186 187 189 192 194 198
292 291 290 288 286 285 282 280 278 277 275 274 271 267 265 261 258 257 256 254 254 254 252 252 257 255 252 250 228 213 201 184 176 172 164 164 163 168 175 179 183 187 191
290 290 290 288 286 284 281 287 290 284 281 277 273 268 264 263 272 269 266 263 257 250 248 246 246 248 243 238 228 212 200 174 166 173 160 159 159 165 169 173 177 180 184
290 290 288 288 288 286 313 308 286 286 283 277 273 270 268 256 247 240 248 259 265 261 255 252 247 242 240 237 228 215 197 185 189 177 166 163 166 164 167 175 169 173 179
293 291 290 289 288 286 274 264 267 279 278 275 273 271 268 265 254 252 239 232 241 245 250 256 256 252 243 231 221 215 205 198 193 173 165 158 160 156 154 139 148 163 170
294 293 293 292 291 289 269 261 267 273 273 271 269 267 265 266 262 259 258 252 247 239 233 236 246 250 248 241 224 219 214 197 176 171 171 161 158 150 144 137 144 153 160
295 294 292 292 290 289 269 253 266 283 274 271 268 266 265 264 258 250 256 256 255 251 239 233 242 248 251 235 220 217 208 193 183 179 182 160 153 145 145 144 135 144 150
293 294 294 292 290 289 281 250 259 279 279 278 274 268 256 252 266 249 251 251 249 247 247 231 223 225 228 222 211 217 215 204 191 185 178 164 159 160 152 147 148 149 145
Height
1559 1559 1559 1559 1560 1560 1560 1560 1560 1560 1560 1561 1561 1562 1562 1563 1564 1565 1566 1566 1567 1570 1572 1574 1575 1578 1580 1582 1584 1586 1588 1590 1592 1595 1597 1599 1601 1603 1605 1607 1609 1610 1612
1556 1557 1557 1556 1557 1557 1557 1557 1557 1556 1556 1557 1556 1556 1557 1558 1558 1559 1561 1561 1562 1564 1566 1569 1571 1574 1576 1578 1580 1583 1585 1588 1590 1592 1595 1597 1599 1601 1604 1606 1608 1609 1611
1554 1554 1554 1554 1554 1554 1553 1553 1553 1552 1552 1552 1552 1552 1552 1552 1552 1553 1554 1556 1557 1558 1560 1563 1566 1568 1571 1574 1576 1579 1581 1584 1587 1589 1592 1594 1597 1599 1602 1604 1606 1608 1610
1551 1551 1552 1552 1551 1551 1551 1550 1549 1549 1548 1548 1547 1547 1547 1546 1546 1547 1548 1549 1551 1553 1554 1556 1559 1562 1565 1568 1571 1574 1577 1580 1583 1586 1588 1591 1594 1596 1599 1601 1604 1606 1608
1550 1550 1550 1550 1549 1549 1548 1547 1547 1546 1545 1543 1543 1541 1541 1541 1541 1541 1542 1543 1544 1546 1548 1550 1552 1555 1559 1562 1565 1568 1572 1575 1578 1581 1584 1587 1590 1593 1596 1598 1601 1603 1606
1548 1548 1549 1547 1547 1546 1545 1544 1543 1542 1541 1540 1539 1538 1536 1535 1535 1535 1535 1536 1537 1539 1541 1544 1546 1548 1551 1555 1558 1562 1565 1569 1573 1576 1580 1583 1586 1589 1592 1595 1598 1600 1603
1547 1546 1546 1545 1544 1544 1542 1541 1540 1539 1538 1537 1536 1534 1532 1531 1530 1529 1529 1529 1530 1532 1534 1536 1539 1541 1544 1547 1551 1555 1559 1562 1566 1570 1574 1577 1581 1584 1587 1591 1594 1597 1599
1544 1544 1543 1542 1542 1540 1539 1538 1536 1536 1535 1534 1533 1531 1529 1528 1525 1525 1524 1523 1524 1526 1527 1529 1531 1534 1537 1541 1543 1547 1551 1555 1559 1564 1568 1572 1576 1579 1582 1586 1589 1592 1595
1541 1540 1539 1539 1538 1538 1537 1535 1534 1533 1532 1531 1530 1530 1527 1523 1522 1521 1520 1519 1519 1520 1521 1523 1524 1526 1529 1533 1536 1539 1544 1548 1553 1557 1561 1566 1570 1573 1577 1581 1584 1588 1591
1538 1537 1536 1535 1534 1534 1533 1531 1531 1530 1529 1528 1527 1526 1525 1523 1522 1518 1517 1516 1515 1515 1516 1517 1518 1520 1522 1525 1529 1532 1536 1541 1546 1550 1555 1559 1564 1567 1571 1575 1579 1582 1586
1534 1533 1531 1530 1529 1529 1528 1527 1526 1525 1525 1525 1524 1523 1521 1520 1518 1517 1514 1513 1512 1511 1511 1511 1511 1513 1516 1518 1521 1525 1528 1533 1538 1543 1548 1553 1557 1561 1565 1569 1573 1576 1580
1531 1530 1528 1526 1525 1524 1523 1522 1521 1521 1520 1520 1519 1519 1518 1517 1515 1513 1511 1509 1508 1507 1506 1506 1506 1507 1509 1512 1515 1518 1521 1526 1531 1536 1541 1546 1550 1554 1559 1563 1567 1570 1574
1528 1526 1524 1522 1520 1519 1518 1517 1516 1516 1515 1515 1514 1514 1514 1513 1512 1510 1508 1506 1504 1503 1502 1501 1501 1502 1503 1506 1508 1511 1514 1518 1524 1529 1534 1539 1543 1548 1552 1556 1560 1564 1568
1524 1521 1519 1517 1516 1514 1513 1512 1512 1511 1510 1509 1509 1509 1508 1508 1507 1506 1505 1503 1501 1499 1498 1498 1497 1497 1498 1500 1502 1505 1508 1512 1516 1522 1527 1532 1537 1541 1545 1550 1554 1558 1562
1519 1517 1514 1513 1511 1510 1508 1507 1507 1506 1505 1504 1504 1503 1503 1503 1502 1502 1501 1500 1500 1496 1495 1494 1494 1494 1494 1495 1497 1499 1502 1505 1510 1515 1520 1525 1530 1535 1539 1543 1547 1552 1556
1513 1511 1510 1508 1506 1505 1504 1502 1502 1501 1500 1499 1498 1497 1497 1497 1497 1497 1497 1496 1495 1494 1492 1491 1491 1491 1490 1491 1492 1494 1497 1500 1504 1509 1514 1519 1523 1528 1533 1537 1541 1545 1549
1508 1507 1505 1503 1501 1500 1499 1497 1496 1495 1494 1493 1493 1492 1492 1491 1492 1492 1492 1491 1491 1490 1489 1488 1488 1487 1487 1487 1488 1490 1492 1495 1499 1503 1508 1513 1518 1522 1527 1531 1535 1539 1543
1504 1502 1500 1498 1497 1495 1494 1492 1491 1490 1489 1488 1487 1487 1486 1486 1486 1486 1486 1486 1486 1485 1485 1484 1483 1483 1483 1484 1484 1486 1488 1491 1494 1498 1502 1507 1512 1517 1521 1525 1529 1533 1538
1500 1498 1495 1493 1492 1490 1488 1486 1485 1484 1483 1482 1481 1480 1480 1480 1480 1480 1480 1480 1481 1481 1481 1480 1479 1479 1480 1480 1481 1482 1484 1486 1489 1493 1497 1502 1506 1511 1515 1520 1524 1528 1532
1495 1493 1491 1489 1487 1485 1483 1481 1480 1478 1477 1476 1475 1474 1474 1474 1474 1474 1474 1474 1475 1476 1476 1476 1475 1476 1476 1476 1477 1479 1480 1482 1484 1488 1492 1496 1501 1506 1510 1514 1518 1523 1527
1491 1488 1486 1484 1482 1480 1479 1477 1475 1473 1472 1470 1469 1468 1467 1467 1467 1467 1469 1469 1470 1470 1471 1471 1471 1472 1472 1473 1473 1474 1476 1478 1481 1484 1487 1492 1496 1500 1504 1509 1513 1517 1521
1486 1484 1482 1479 1477 1476 1474 1471 1469 1467 1465 1464 1463 1462 1461 1460 1460 1460 1461 1462 1463 1464 1465 1466 1467 1467 1468 1469 1470 1471 1473 1475 1477 1480 1484 1488 1492 1496 1500 1504 1508 1512 1516
1482 1480 1477 1475 1472 1470 1468 1465 1463 1461 1459 1458 1457 1455 1455 1455 1455 1455 1454 1455 1455 1457 1459 1460 1462 1462 1463 1464 1466 1468 1469 1472 1474 1477 1481 1484 1488 1492 1496 1499 1503 1507 1511
1478 1476 1473 1470 1467 1465 1462 1460 1457 1455 1453 1451 1450 1449 1448 1447 1448 1448 1449 1449 1450 1451 1452 1453 1455 1457 1459 1460 1462 1464 1465 1468 1471 1474 1478 1481 1484 1488 1492 1496 1499 1503 1507
1473 1471 1468 1465 1462 1459 1457 1454 1452 1449 1447 1445 1444 1443 1442 1441 1441 1441 1442 1442 1443 1445 1446 1447 1449 1451 1453 1455 1456 1459 1461 1464 1466 1469 1473 1477 1481 1485 1488 1492 1495 1499 1503
1469 1466 1463 1460 1457 1454 1451 1449 1446 1444 1442 1440 1438 1437 1435 1435 1435 1435 1435 1436 1437 1438 1441 1442 1443 1445 1447 1449 1451 1454 1456 1459 1462 1465 1469 1473 1477 1481 1485 1489 1492 1496 1499